Wetterdaten: Sonntag, 17.01.2016
Datum Zeit Temp. A. Feuchte A. Luftdruck Regen Wind Richtung Richtung Sonnenschein ET UV Solar Taupunkt Windchill Windben Empfang
17.01.2016 00:00 -0,7 C 90 % 1017,7 hPa 0,0 l/m 10,9 km/h (2 Bft) W-SW 240 0 min 0,000 mm 0,0 UV-I 0 W/m -2,1 C -5,0 C 19,3 km/h (3 Bft) 100,00 %
17.01.2016 00:05 -0,7 C 90 % 1017,7 hPa 0,0 l/m 11,3 km/h (2 Bft) W-SW 252 0 min 0,000 mm 0,0 UV-I 0 W/m -2,1 C -5,3 C 17,7 km/h (3 Bft) 77,53 %
17.01.2016 00:10 -0,7 C 90 % 1017,7 hPa 0,0 l/m 11,1 km/h (2 Bft) S-SW 213 0 min 0,000 mm 0,0 UV-I 0 W/m -2,1 C -5,1 C 17,7 km/h (3 Bft) 100,00 %
17.01.2016 00:15 -0,7 C 89 % 1017,6 hPa 0,0 l/m 13,7 km/h (3 Bft) SW 236 0 min 0,000 mm 0,0 UV-I 0 W/m -2,3 C -7,0 C 24,1 km/h (4 Bft) 99,23 %
17.01.2016 00:20 -0,7 C 89 % 1017,5 hPa 0,0 l/m 12,9 km/h (3 Bft) SW 232 0 min 0,000 mm 0,0 UV-I 0 W/m -2,3 C -6,5 C 19,3 km/h (3 Bft) 100,00 %
17.01.2016 00:25 -0,6 C 89 % 1017,5 hPa 0,0 l/m 12,8 km/h (3 Bft) W-SW 246 0 min 0,000 mm 0,0 UV-I 0 W/m -2,2 C -6,3 C 20,9 km/h (4 Bft) 99,19 %
17.01.2016 00:30 -0,7 C 89 % 1017,4 hPa 0,0 l/m 12,0 km/h (2 Bft) SW 214 0 min 0,000 mm 0,0 UV-I 0 W/m -2,3 C -5,8 C 22,5 km/h (4 Bft) 99,13 %
17.01.2016 00:35 -0,6 C 88 % 1017,4 hPa 0,0 l/m 11,8 km/h (2 Bft) S-SW 192 0 min 0,000 mm 0,0 UV-I 0 W/m -2,3 C -5,5 C 19,3 km/h (3 Bft) 100,00 %
17.01.2016 00:40 -0,6 C 88 % 1017,3 hPa 0,0 l/m 11,6 km/h (2 Bft) SW 227 0 min 0,000 mm 0,0 UV-I 0 W/m -2,3 C -5,4 C 19,3 km/h (3 Bft) 99,10 %
17.01.2016 00:45 -0,6 C 88 % 1017,3 hPa 0,0 l/m 11,4 km/h (2 Bft) W-SW 238 0 min 0,000 mm 0,0 UV-I 0 W/m -2,3 C -5,2 C 19,3 km/h (3 Bft) 100,00 %
17.01.2016 00:50 -0,4 C 87 % 1017,2 hPa 0,0 l/m 8,4 km/h (2 Bft) W-SW 250 0 min 0,000 mm 0,0 UV-I 0 W/m -2,3 C -2,5 C 12,9 km/h (3 Bft) 98,29 %
17.01.2016 00:55 -0,4 C 87 % 1017,1 hPa 0,0 l/m 9,9 km/h (2 Bft) SW 219 0 min 0,000 mm 0,0 UV-I 0 W/m -2,3 C -3,8 C 17,7 km/h (3 Bft) 96,69 %
17.01.2016 01:00 -0,4 C 87 % 1017,1 hPa 0,0 l/m 8,7 km/h (2 Bft) S 184 0 min 0,000 mm 0,0 UV-I 0 W/m -2,3 C -2,7 C 12,9 km/h (3 Bft) 98,21 %
17.01.2016 01:05 -0,3 C 87 % 1017,1 hPa 0,0 l/m 10,6 km/h (2 Bft) W-SW 239 0 min 0,000 mm 0,0 UV-I 0 W/m -2,2 C -4,3 C 16,1 km/h (3 Bft) 97,56 %
17.01.2016 01:10 -0,4 C 87 % 1017,1 hPa 0,0 l/m 8,6 km/h (2 Bft) S-SW 213 0 min 0,000 mm 0,0 UV-I 0 W/m -2,3 C -2,6 C 14,5 km/h (3 Bft) 95,28 %
17.01.2016 01:15 -0,5 C 88 % 1017,0 hPa 0,0 l/m 8,9 km/h (2 Bft) S 181 0 min 0,000 mm 0,0 UV-I 0 W/m -2,2 C -3,0 C 14,5 km/h (3 Bft) 97,52 %
17.01.2016 01:20 -0,5 C 88 % 1017,0 hPa 0,0 l/m 12,3 km/h (3 Bft) W-SW 246 0 min 0,000 mm 0,0 UV-I 0 W/m -2,2 C -5,8 C 22,5 km/h (4 Bft) 95,80 %
17.01.2016 01:25 -0,6 C 89 % 1017,0 hPa 0,0 l/m 11,1 km/h (2 Bft) SW 222 0 min 0,000 mm 0,0 UV-I 0 W/m -2,2 C -5,0 C 19,3 km/h (3 Bft) 95,76 %
17.01.2016 01:30 -0,7 C 90 % 1017,0 hPa 0,0 l/m 11,0 km/h (2 Bft) W 261 0 min 0,000 mm 0,0 UV-I 0 W/m -2,1 C -5,0 C 19,3 km/h (3 Bft) 99,13 %
17.01.2016 01:35 -0,7 C 90 % 1017,0 hPa 0,0 l/m 8,3 km/h (2 Bft) S-SW 199 0 min 0,000 mm 0,0 UV-I 0 W/m -2,1 C -2,7 C 14,5 km/h (3 Bft) 99,15 %
17.01.2016 01:40 -0,8 C 91 % 1017,1 hPa 0,0 l/m 8,7 km/h (2 Bft) S-SW 202 0 min 0,000 mm 0,0 UV-I 0 W/m -2,1 C -3,2 C 16,1 km/h (3 Bft) 99,15 %
17.01.2016 01:45 -0,8 C 91 % 1017,1 hPa 0,0 l/m 9,3 km/h (2 Bft) SW 216 0 min 0,000 mm 0,0 UV-I 0 W/m -2,1 C -3,7 C 17,7 km/h (3 Bft) 100,00 %
17.01.2016 01:50 -0,8 C 92 % 1017,0 hPa 0,0 l/m 10,8 km/h (2 Bft) S-SW 202 0 min 0,000 mm 0,0 UV-I 0 W/m -1,9 C -5,0 C 17,7 km/h (3 Bft) 99,17 %
17.01.2016 01:55 -0,9 C 92 % 1017,0 hPa 0,0 l/m 12,2 km/h (2 Bft) S-SW 205 0 min 0,000 mm 0,0 UV-I 0 W/m -2,0 C -6,2 C 24,1 km/h (4 Bft) 96,43 %
17.01.2016 02:00 -0,9 C 93 % 1017,0 hPa 0,0 l/m 12,5 km/h (3 Bft) SW 232 0 min 0,000 mm 0,0 UV-I 0 W/m -1,9 C -6,4 C 20,9 km/h (4 Bft) 99,19 %
17.01.2016 02:05 -1,0 C 93 % 1016,9 hPa 0,0 l/m 15,3 km/h (3 Bft) W-SW 253 0 min 0,000 mm 0,0 UV-I 0 W/m -2,0 C -8,4 C 24,1 km/h (4 Bft) 99,11 %
17.01.2016 02:10 -1,1 C 93 % 1016,9 hPa 0,0 l/m 13,0 km/h (3 Bft) S-SW 207 0 min 0,000 mm 0,0 UV-I 0 W/m -2,1 C -7,0 C 17,7 km/h (3 Bft) 99,15 %
17.01.2016 02:15 -1,1 C 94 % 1016,9 hPa 0,0 l/m 12,8 km/h (3 Bft) W-SW 237 0 min 0,000 mm 0,0 UV-I 0 W/m -1,9 C -6,9 C 20,9 km/h (4 Bft) 100,00 %
17.01.2016 02:20 -1,1 C 94 % 1016,8 hPa 0,0 l/m 12,5 km/h (3 Bft) SW 225 0 min 0,000 mm 0,0 UV-I 0 W/m -1,9 C -6,6 C 20,9 km/h (4 Bft) 98,21 %
17.01.2016 02:25 -1,0 C 94 % 1016,8 hPa 0,0 l/m 12,2 km/h (2 Bft) S 185 0 min 0,000 mm 0,0 UV-I 0 W/m -1,8 C -6,3 C 20,9 km/h (4 Bft) 98,37 %
17.01.2016 02:30 -1,1 C 94 % 1016,7 hPa 0,0 l/m 13,4 km/h (3 Bft) SW 233 0 min 0,000 mm 0,0 UV-I 0 W/m -1,9 C -7,3 C 24,1 km/h (4 Bft) 100,00 %
17.01.2016 02:35 -1,1 C 94 % 1016,7 hPa 0,0 l/m 11,6 km/h (2 Bft) S-SW 213 0 min 0,000 mm 0,0 UV-I 0 W/m -1,9 C -6,0 C 20,9 km/h (4 Bft) 99,08 %
17.01.2016 02:40 -1,1 C 94 % 1016,7 hPa 0,0 l/m 11,3 km/h (2 Bft) W-SW 246 0 min 0,000 mm 0,0 UV-I 0 W/m -1,9 C -5,7 C 17,7 km/h (3 Bft) 100,00 %
17.01.2016 02:45 -1,1 C 94 % 1016,7 hPa 0,0 l/m 12,6 km/h (3 Bft) SW 220 0 min 0,000 mm 0,0 UV-I 0 W/m -1,9 C -6,7 C 19,3 km/h (3 Bft) 98,35 %
17.01.2016 02:50 -1,2 C 94 % 1016,6 hPa 0,0 l/m 11,9 km/h (2 Bft) S-SW 202 0 min 0,000 mm 0,0 UV-I 0 W/m -2,0 C -6,3 C 19,3 km/h (3 Bft) 99,11 %
17.01.2016 02:55 -1,1 C 94 % 1016,6 hPa 0,0 l/m 10,3 km/h (2 Bft) S-SW 207 0 min 0,000 mm 0,0 UV-I 0 W/m -1,9 C -4,9 C 19,3 km/h (3 Bft) 99,15 %
17.01.2016 03:00 -1,1 C 94 % 1016,6 hPa 0,0 l/m 13,3 km/h (3 Bft) SW 220 0 min 0,000 mm 0,0 UV-I 0 W/m -1,9 C -7,2 C 20,9 km/h (4 Bft) 98,35 %
17.01.2016 03:05 -1,1 C 95 % 1016,6 hPa 0,0 l/m 12,8 km/h (3 Bft) SW 236 0 min 0,000 mm 0,0 UV-I 0 W/m -1,8 C -6,9 C 19,3 km/h (3 Bft) 96,58 %
17.01.2016 03:10 -1,0 C 95 % 1016,6 hPa 0,0 l/m 13,3 km/h (3 Bft) W-SW 244 0 min 0,000 mm 0,0 UV-I 0 W/m -1,7 C -7,1 C 22,5 km/h (4 Bft) 97,52 %
17.01.2016 03:15 -0,9 C 94 % 1016,6 hPa 0,0 l/m 12,4 km/h (3 Bft) W-SW 256 0 min 0,000 mm 0,0 UV-I 0 W/m -1,7 C -6,3 C 20,9 km/h (4 Bft) 98,21 %
17.01.2016 03:20 -0,9 C 94 % 1016,5 hPa 0,0 l/m 13,0 km/h (3 Bft) S-SW 207 0 min 0,000 mm 0,0 UV-I 0 W/m -1,7 C -6,8 C 25,7 km/h (4 Bft) 97,37 %
17.01.2016 03:25 -0,9 C 94 % 1016,6 hPa 0,0 l/m 12,7 km/h (3 Bft) SW 225 0 min 0,000 mm 0,0 UV-I 0 W/m -1,7 C -6,5 C 19,3 km/h (3 Bft) 95,65 %
17.01.2016 03:30 -0,8 C 93 % 1016,5 hPa 0,0 l/m 13,1 km/h (3 Bft) W-SW 240 0 min 0,000 mm 0,0 UV-I 0 W/m -1,8 C -6,7 C 25,7 km/h (4 Bft) 96,69 %
17.01.2016 03:35 -0,8 C 93 % 1016,6 hPa 0,0 l/m 14,6 km/h (3 Bft) SW 232 0 min 0,000 mm 0,0 UV-I 0 W/m -1,8 C -7,7 C 22,5 km/h (4 Bft) 98,29 %
17.01.2016 03:40 -0,8 C 93 % 1016,5 hPa 0,0 l/m 14,0 km/h (3 Bft) W-SW 244 0 min 0,000 mm 0,0 UV-I 0 W/m -1,8 C -7,3 C 20,9 km/h (4 Bft) 99,13 %
17.01.2016 03:45 -0,8 C 92 % 1016,5 hPa 0,0 l/m 13,6 km/h (3 Bft) W 270 0 min 0,000 mm 0,0 UV-I 0 W/m -1,9 C -7,0 C 19,3 km/h (3 Bft) 98,33 %
17.01.2016 03:50 -0,7 C 91 % 1016,5 hPa 0,0 l/m 14,7 km/h (3 Bft) W 266 0 min 0,000 mm 0,0 UV-I 0 W/m -2,0 C -7,6 C 22,5 km/h (4 Bft) 100,00 %
17.01.2016 03:55 -0,6 C 90 % 1016,4 hPa 0,0 l/m 17,3 km/h (3 Bft) SW 225 0 min 0,000 mm 0,0 UV-I 0 W/m -2,0 C -9,0 C 25,7 km/h (4 Bft) 100,00 %
17.01.2016 04:00 -0,6 C 89 % 1016,4 hPa 0,0 l/m 19,2 km/h (3 Bft) W-SW 241 0 min 0,000 mm 0,0 UV-I 0 W/m -2,2 C -10,0 C 35,4 km/h (5 Bft) 99,19 %
17.01.2016 04:05 -0,4 C 88 % 1016,4 hPa 0,0 l/m 14,6 km/h (3 Bft) W 266 0 min 0,000 mm 0,0 UV-I 0 W/m -2,1 C -7,2 C 25,7 km/h (4 Bft) 100,00 %
17.01.2016 04:10 -0,4 C 88 % 1016,4 hPa 0,0 l/m 18,4 km/h (3 Bft) W-SW 243 0 min 0,000 mm 0,0 UV-I 0 W/m -2,1 C -9,4 C 29,0 km/h (5 Bft) 99,15 %
17.01.2016 04:15 -0,4 C 88 % 1016,5 hPa 0,0 l/m 16,9 km/h (3 Bft) W-SW 251 0 min 0,000 mm 0,0 UV-I 0 W/m -2,1 C -8,6 C 35,4 km/h (5 Bft) 100,00 %
17.01.2016 04:20 -0,4 C 87 % 1016,5 hPa 0,0 l/m 17,2 km/h (3 Bft) W-SW 254 0 min 0,000 mm 0,0 UV-I 0 W/m -2,3 C -8,7 C 27,4 km/h (4 Bft) 99,11 %
17.01.2016 04:25 -0,5 C 87 % 1016,5 hPa 0,0 l/m 17,4 km/h (3 Bft) W 261 0 min 0,000 mm 0,0 UV-I 0 W/m -2,4 C -9,0 C 32,2 km/h (5 Bft) 97,56 %
17.01.2016 04:30 -0,5 C 86 % 1016,5 hPa 0,0 l/m 22,9 km/h (4 Bft) SW 232 0 min 0,000 mm 0,0 UV-I 0 W/m -2,5 C -11,6 C 46,7 km/h (6 Bft) 100,00 %
17.01.2016 04:35 -0,6 C 86 % 1016,6 hPa 0,0 l/m 17,4 km/h (3 Bft) W 279 0 min 0,000 mm 0,0 UV-I 0 W/m -2,6 C -9,1 C 37,0 km/h (5 Bft) 98,21 %
17.01.2016 04:40 -0,6 C 85 % 1016,7 hPa 0,0 l/m 19,4 km/h (3 Bft) W 271 0 min 0,000 mm 0,0 UV-I 0 W/m -2,8 C -10,1 C 29,0 km/h (5 Bft) 99,15 %
17.01.2016 04:45 -0,6 C 85 % 1016,7 hPa 0,0 l/m 17,3 km/h (3 Bft) W 264 0 min 0,000 mm 0,0 UV-I 0 W/m -2,8 C -9,0 C 27,4 km/h (4 Bft) 99,11 %
17.01.2016 04:50 -0,6 C 85 % 1016,7 hPa 0,0 l/m 19,6 km/h (3 Bft) W-NW 298 0 min 0,000 mm 0,0 UV-I 0 W/m -2,8 C -10,2 C 30,6 km/h (5 Bft) 99,15 %
17.01.2016 04:55 -0,6 C 85 % 1016,6 hPa 0,0 l/m 19,9 km/h (4 Bft) W 279 0 min 0,000 mm 0,0 UV-I 0 W/m -2,8 C -10,4 C 30,6 km/h (5 Bft) 99,15 %
17.01.2016 05:00 -0,6 C 85 % 1016,7 hPa 0,0 l/m 21,5 km/h (4 Bft) W-SW 243 0 min 0,025 mm 0,0 UV-I 0 W/m -2,8 C -11,1 C 32,2 km/h (5 Bft) 99,17 %
17.01.2016 05:05 -0,7 C 85 % 1016,7 hPa 0,0 l/m 21,0 km/h (4 Bft) W-SW 246 0 min 0,000 mm 0,0 UV-I 0 W/m -2,9 C -11,0 C 30,6 km/h (5 Bft) 96,58 %
17.01.2016 05:10 -0,7 C 85 % 1016,7 hPa 0,0 l/m 17,5 km/h (3 Bft) W-SW 247 0 min 0,000 mm 0,0 UV-I 0 W/m -2,9 C -9,3 C 29,0 km/h (5 Bft) 96,52 %
17.01.2016 05:15 -0,8 C 86 % 1016,6 hPa 0,0 l/m 19,0 km/h (3 Bft) S-SW 194 0 min 0,000 mm 0,0 UV-I 0 W/m -2,8 C -10,2 C 29,0 km/h (5 Bft) 97,58 %
17.01.2016 05:20 -0,8 C 86 % 1016,6 hPa 0,0 l/m 19,8 km/h (3 Bft) S-SW 213 0 min 0,000 mm 0,0 UV-I 0 W/m -2,8 C -10,6 C 32,2 km/h (5 Bft) 97,44 %
17.01.2016 05:25 -0,9 C 86 % 1016,7 hPa 0,0 l/m 18,0 km/h (3 Bft) SW 216 0 min 0,000 mm 0,0 UV-I 0 W/m -2,9 C -9,8 C 29,0 km/h (5 Bft) 97,17 %
17.01.2016 05:30 -1,0 C 87 % 1016,6 hPa 0,0 l/m 18,3 km/h (3 Bft) SW 229 0 min 0,000 mm 0,0 UV-I 0 W/m -2,9 C -10,1 C 29,0 km/h (5 Bft) 96,52 %
17.01.2016 05:35 -1,1 C 87 % 1016,5 hPa 0,0 l/m 16,7 km/h (3 Bft) SW 215 0 min 0,000 mm 0,0 UV-I 0 W/m -3,0 C -9,3 C 25,7 km/h (4 Bft) 97,50 %
17.01.2016 05:40 -1,1 C 87 % 1016,6 hPa 0,0 l/m 20,3 km/h (4 Bft) SW 219 0 min 0,000 mm 0,0 UV-I 0 W/m -3,0 C -11,2 C 38,6 km/h (5 Bft) 97,58 %
17.01.2016 05:45 -1,2 C 87 % 1016,6 hPa 0,0 l/m 17,1 km/h (3 Bft) W-SW 247 0 min 0,000 mm 0,0 UV-I 0 W/m -3,1 C -9,7 C 29,0 km/h (5 Bft) 97,37 %
17.01.2016 05:50 -1,2 C 87 % 1016,5 hPa 0,0 l/m 21,6 km/h (4 Bft) W 261 0 min 0,000 mm 0,0 UV-I 0 W/m -3,1 C -11,9 C 37,0 km/h (5 Bft) 97,46 %
17.01.2016 05:55 -1,3 C 89 % 1016,6 hPa 0,0 l/m 16,8 km/h (3 Bft) W 272 0 min 0,000 mm 0,0 UV-I 0 W/m -2,9 C -9,6 C 29,0 km/h (5 Bft) 99,13 %
17.01.2016 06:00 -1,4 C 90 % 1016,5 hPa 0,0 l/m 16,8 km/h (3 Bft) SW 221 0 min 0,026 mm 0,0 UV-I 0 W/m -2,8 C -9,8 C 33,8 km/h (5 Bft) 97,50 %
17.01.2016 06:05 -1,6 C 91 % 1016,5 hPa 0,0 l/m 15,8 km/h (3 Bft) W 260 0 min 0,000 mm 0,0 UV-I 0 W/m -2,9 C -9,4 C 25,7 km/h (4 Bft) 100,00 %
17.01.2016 06:10 -1,7 C 92 % 1016,5 hPa 0,0 l/m 16,6 km/h (3 Bft) W-SW 244 0 min 0,000 mm 0,0 UV-I 0 W/m -2,8 C -10,0 C 27,4 km/h (4 Bft) 99,17 %
17.01.2016 06:15 -1,8 C 93 % 1016,5 hPa 0,0 l/m 21,7 km/h (4 Bft) W-SW 253 0 min 0,000 mm 0,0 UV-I 0 W/m -2,8 C -12,8 C 37,0 km/h (5 Bft) 99,17 %
17.01.2016 06:20 -1,8 C 93 % 1016,5 hPa 0,0 l/m 19,1 km/h (3 Bft) SW 215 0 min 0,000 mm 0,0 UV-I 0 W/m -2,8 C -11,5 C 35,4 km/h (5 Bft) 99,15 %
17.01.2016 06:25 -1,9 C 94 % 1016,5 hPa 0,0 l/m 18,1 km/h (3 Bft) W-SW 244 0 min 0,000 mm 0,0 UV-I 0 W/m -2,7 C -11,1 C 30,6 km/h (5 Bft) 100,00 %
17.01.2016 06:30 -1,9 C 94 % 1016,5 hPa 0,0 l/m 19,7 km/h (3 Bft) W 260 0 min 0,000 mm 0,0 UV-I 0 W/m -2,7 C -11,9 C 33,8 km/h (5 Bft) 100,00 %
17.01.2016 06:35 -1,9 C 94 % 1016,4 hPa 0,0 l/m 22,0 km/h (4 Bft) SW 223 0 min 0,000 mm 0,0 UV-I 0 W/m -2,7 C -13,0 C 35,4 km/h (5 Bft) 96,61 %
17.01.2016 06:40 -1,9 C 94 % 1016,5 hPa 0,0 l/m 20,0 km/h (4 Bft) W-SW 240 0 min 0,000 mm 0,0 UV-I 0 W/m -2,7 C -12,1 C 27,4 km/h (4 Bft) 100,00 %
17.01.2016 06:45 -2,0 C 94 % 1016,5 hPa 0,0 l/m 21,2 km/h (4 Bft) SW 232 0 min 0,000 mm 0,0 UV-I 0 W/m -2,8 C -12,8 C 32,2 km/h (5 Bft) 100,00 %
17.01.2016 06:50 -2,0 C 94 % 1016,6 hPa 0,0 l/m 22,9 km/h (4 Bft) W 278 0 min 0,000 mm 0,0 UV-I 0 W/m -2,8 C -13,6 C 33,8 km/h (5 Bft) 100,00 %
17.01.2016 06:55 -2,0 C 94 % 1016,5 hPa 0,0 l/m 20,9 km/h (4 Bft) W-SW 253 0 min 0,000 mm 0,0 UV-I 0 W/m -2,8 C -12,7 C 33,8 km/h (5 Bft) 99,15 %
17.01.2016 07:00 -2,0 C 94 % 1016,7 hPa 0,0 l/m 20,0 km/h (4 Bft) W 260 0 min 0,000 mm 0,0 UV-I 0 W/m -2,8 C -12,2 C 32,2 km/h (5 Bft) 98,39 %
17.01.2016 07:05 -2,0 C 94 % 1016,7 hPa 0,0 l/m 21,1 km/h (4 Bft) W-NW 288 0 min 0,000 mm 0,0 UV-I 0 W/m -2,8 C -12,7 C 33,8 km/h (5 Bft) 100,00 %
17.01.2016 07:10 -2,1 C 94 % 1016,7 hPa 0,0 l/m 19,7 km/h (3 Bft) W 269 0 min 0,000 mm 0,0 UV-I 0 W/m -2,9 C -12,2 C 38,6 km/h (5 Bft) 98,35 %
17.01.2016 07:15 -2,1 C 94 % 1016,8 hPa 0,0 l/m 20,0 km/h (4 Bft) SW 226 0 min 0,000 mm 0,0 UV-I 0 W/m -2,9 C -12,3 C 29,0 km/h (5 Bft) 98,31 %
17.01.2016 07:20 -2,1 C 94 % 1016,8 hPa 0,0 l/m 22,1 km/h (4 Bft) W-SW 257 0 min 0,000 mm 0,0 UV-I 0 W/m -2,9 C -13,3 C 35,4 km/h (5 Bft) 96,19 %
17.01.2016 07:25 -2,1 C 94 % 1016,8 hPa 0,0 l/m 20,2 km/h (4 Bft) SW 231 0 min 0,000 mm 0,0 UV-I 0 W/m -2,9 C -12,4 C 30,6 km/h (5 Bft) 97,52 %
17.01.2016 07:30 -2,1 C 94 % 1016,9 hPa 0,0 l/m 23,1 km/h (4 Bft) W 273 0 min 0,000 mm 0,0 UV-I 0 W/m -2,9 C -13,8 C 37,0 km/h (5 Bft) 97,46 %
17.01.2016 07:35 -2,1 C 94 % 1017,0 hPa 0,0 l/m 20,4 km/h (4 Bft) W-SW 239 0 min 0,000 mm 0,0 UV-I 0 W/m -2,9 C -12,5 C 37,0 km/h (5 Bft) 96,67 %
17.01.2016 07:40 -2,1 C 94 % 1017,0 hPa 0,0 l/m 21,1 km/h (4 Bft) W-SW 246 0 min 0,000 mm 0,0 UV-I 0 W/m -2,9 C -12,9 C 33,8 km/h (5 Bft) 97,52 %
17.01.2016 07:45 -2,1 C 94 % 1017,1 hPa 0,0 l/m 17,7 km/h (3 Bft) W 265 0 min 0,000 mm 0,0 UV-I 0 W/m -2,9 C -11,1 C 30,6 km/h (5 Bft) 95,61 %
17.01.2016 07:50 -2,1 C 93 % 1017,1 hPa 0,0 l/m 19,9 km/h (4 Bft) W-SW 240 0 min 0,000 mm 0,0 UV-I 0 W/m -3,1 C -12,3 C 33,8 km/h (5 Bft) 98,31 %
17.01.2016 07:55 -2,1 C 93 % 1017,1 hPa 0,0 l/m 20,9 km/h (4 Bft) W-SW 246 0 min 0,000 mm 0,0 UV-I 2 W/m -3,1 C -12,8 C 33,8 km/h (5 Bft) 97,32 %
17.01.2016 08:00 -2,1 C 93 % 1017,2 hPa 0,0 l/m 19,4 km/h (3 Bft) W 272 0 min 0,000 mm 0,0 UV-I 5 W/m -3,1 C -12,0 C 33,8 km/h (5 Bft) 100,00 %
17.01.2016 08:05 -2,1 C 93 % 1017,4 hPa 0,0 l/m 19,4 km/h (3 Bft) W 261 0 min 0,000 mm 0,0 UV-I 7 W/m -3,1 C -12,0 C 30,6 km/h (5 Bft) 99,11 %
17.01.2016 08:10 -2,1 C 92 % 1017,4 hPa 0,0 l/m 21,1 km/h (4 Bft) W 259 0 min 0,000 mm 0,0 UV-I 10 W/m -3,2 C -12,9 C 37,0 km/h (5 Bft) 100,00 %
17.01.2016 08:15 -2,1 C 92 % 1017,4 hPa 0,0 l/m 20,7 km/h (4 Bft) W-SW 250 0 min 0,000 mm 0,0 UV-I 12 W/m -3,2 C -12,7 C 32,2 km/h (5 Bft) 99,08 %
17.01.2016 08:20 -2,1 C 91 % 1017,5 hPa 0,0 l/m 21,1 km/h (4 Bft) W 260 0 min 0,000 mm 0,0 UV-I 16 W/m -3,4 C -12,9 C 38,6 km/h (5 Bft) 99,17 %
17.01.2016 08:25 -2,1 C 91 % 1017,5 hPa 0,0 l/m 21,3 km/h (4 Bft) W-SW 250 0 min 0,000 mm 0,0 UV-I 18 W/m -3,4 C -13,0 C 40,2 km/h (6 Bft) 97,37 %
17.01.2016 08:30 -2,1 C 91 % 1017,5 hPa 0,0 l/m 20,2 km/h (4 Bft) W-SW 245 0 min 0,000 mm 0,0 UV-I 18 W/m -3,4 C -12,4 C 29,0 km/h (5 Bft) 100,00 %
17.01.2016 08:35 -2,1 C 90 % 1017,5 hPa 0,0 l/m 24,0 km/h (4 Bft) W-SW 250 0 min 0,000 mm 0,0 UV-I 20 W/m -3,5 C -14,2 C 40,2 km/h (6 Bft) 99,17 %
17.01.2016 08:40 -2,1 C 90 % 1017,6 hPa 0,0 l/m 20,2 km/h (4 Bft) W 269 0 min 0,000 mm 0,0 UV-I 25 W/m -3,5 C -12,4 C 33,8 km/h (5 Bft) 98,20 %
17.01.2016 08:45 -2,1 C 89 % 1017,6 hPa 0,0 l/m 22,7 km/h (4 Bft) W 262 0 min 0,000 mm 0,0 UV-I 30 W/m -3,7 C -13,6 C 38,6 km/h (5 Bft) 99,13 %
17.01.2016 08:50 -2,1 C 89 % 1017,7 hPa 0,0 l/m 20,4 km/h (4 Bft) W 259 0 min 0,000 mm 0,0 UV-I 32 W/m -3,7 C -12,5 C 33,8 km/h (5 Bft) 99,18 %
17.01.2016 08:55 -2,1 C 89 % 1017,7 hPa 0,0 l/m 19,6 km/h (3 Bft) W-SW 238 0 min 0,000 mm 0,0 UV-I 32 W/m -3,7 C -12,1 C 33,8 km/h (5 Bft) 99,17 %
17.01.2016 09:00 -2,1 C 89 % 1017,7 hPa 0,0 l/m 18,8 km/h (3 Bft) W 276 0 min 0,025 mm 0,0 UV-I 32 W/m -3,7 C -11,7 C 29,0 km/h (5 Bft) 100,00 %
17.01.2016 09:05 -2,1 C 89 % 1017,8 hPa 0,0 l/m 17,3 km/h (3 Bft) W 273 0 min 0,000 mm 0,0 UV-I 32 W/m -3,7 C -10,9 C 25,7 km/h (4 Bft) 99,15 %
17.01.2016 09:10 -2,1 C 89 % 1017,9 hPa 0,0 l/m 16,8 km/h (3 Bft) SW 234 0 min 0,000 mm 0,0 UV-I 32 W/m -3,7 C -10,6 C 35,4 km/h (5 Bft) 100,00 %
17.01.2016 09:15 -2,1 C 89 % 1017,9 hPa 0,0 l/m 16,7 km/h (3 Bft) W 273 0 min 0,000 mm 0,0 UV-I 30 W/m -3,7 C -10,6 C 25,7 km/h (4 Bft) 100,00 %
17.01.2016 09:20 -2,1 C 88 % 1017,9 hPa 0,0 l/m 16,2 km/h (3 Bft) W-SW 252 0 min 0,000 mm 0,0 UV-I 31 W/m -3,8 C -10,3 C 29,0 km/h (5 Bft) 95,61 %
17.01.2016 09:25 -2,0 C 87 % 1018,0 hPa 0,0 l/m 15,2 km/h (3 Bft) W-NW 282 0 min 0,000 mm 0,0 UV-I 33 W/m -3,9 C -9,5 C 25,7 km/h (4 Bft) 97,69 %
17.01.2016 09:30 -1,9 C 85 % 1018,0 hPa 0,0 l/m 15,1 km/h (3 Bft) W-SW 244 0 min 0,000 mm 0,0 UV-I 37 W/m -4,1 C -9,3 C 30,6 km/h (5 Bft) 97,94 %
17.01.2016 09:35 -1,8 C 85 % 1018,0 hPa 0,0 l/m 17,1 km/h (3 Bft) W-NW 282 0 min 0,000 mm 0,0 UV-I 44 W/m -4,0 C -10,4 C 32,2 km/h (5 Bft) 96,38 %
17.01.2016 09:40 -1,7 C 84 % 1018,1 hPa 0,0 l/m 16,8 km/h (3 Bft) W 259 0 min 0,000 mm 0,0 UV-I 50 W/m -4,0 C -10,1 C 25,7 km/h (4 Bft) 97,39 %
17.01.2016 09:45 -1,7 C 83 % 1018,2 hPa 0,0 l/m 16,3 km/h (3 Bft) W 279 0 min 0,000 mm 0,0 UV-I 53 W/m -4,2 C -9,8 C 25,7 km/h (4 Bft) 95,73 %
17.01.2016 09:50 -1,6 C 82 % 1018,3 hPa 0,0 l/m 16,2 km/h (3 Bft) W-SW 257 0 min 0,000 mm 0,0 UV-I 58 W/m -4,3 C -9,7 C 25,7 km/h (4 Bft) 96,61 %
17.01.2016 09:55 -1,6 C 81 % 1018,3 hPa 0,0 l/m 18,8 km/h (3 Bft) W-NW 301 0 min 0,000 mm 0,0 UV-I 63 W/m -4,4 C -11,1 C 30,6 km/h (5 Bft) 98,21 %
17.01.2016 10:00 -1,6 C 82 % 1018,4 hPa 0,0 l/m 14,3 km/h (3 Bft) W-NW 286 0 min 0,026 mm 0,0 UV-I 70 W/m -4,3 C -8,5 C 24,1 km/h (4 Bft) 99,03 %
17.01.2016 10:05 -1,5 C 81 % 1018,3 hPa 0,0 l/m 15,7 km/h (3 Bft) NW 308 0 min 0,000 mm 0,0 UV-I 75 W/m -4,3 C -9,2 C 27,4 km/h (4 Bft) 100,00 %
17.01.2016 10:10 -1,5 C 81 % 1018,4 hPa 0,0 l/m 14,2 km/h (3 Bft) W-SW 256 0 min 0,000 mm 0,0 UV-I 78 W/m -4,3 C -8,3 C 24,1 km/h (4 Bft) 99,08 %
17.01.2016 10:15 -1,4 C 81 % 1018,4 hPa 0,0 l/m 12,7 km/h (3 Bft) W-SW 248 0 min 0,000 mm 0,0 UV-I 83 W/m -4,2 C -7,1 C 22,5 km/h (4 Bft) 100,00 %
17.01.2016 10:20 -1,4 C 80 % 1018,4 hPa 0,0 l/m 14,6 km/h (3 Bft) W 278 0 min 0,000 mm 0,0 UV-I 91 W/m -4,4 C -8,4 C 22,5 km/h (4 Bft) 100,00 %
17.01.2016 10:25 -1,3 C 80 % 1018,5 hPa 0,0 l/m 16,4 km/h (3 Bft) W-NW 284 0 min 0,000 mm 0,0 UV-I 97 W/m -4,3 C -9,4 C 40,2 km/h (6 Bft) 97,50 %
17.01.2016 10:30 -1,3 C 81 % 1018,5 hPa 0,0 l/m 16,0 km/h (3 Bft) W-SW 248 0 min 0,000 mm 0,0 UV-I 101 W/m -4,1 C -9,2 C 33,8 km/h (5 Bft) 100,00 %
17.01.2016 10:35 -1,3 C 80 % 1018,5 hPa 0,0 l/m 18,2 km/h (3 Bft) W 269 0 min 0,000 mm 0,0 UV-I 110 W/m -4,3 C -10,4 C 29,0 km/h (5 Bft) 100,00 %
17.01.2016 10:40 -1,2 C 80 % 1018,6 hPa 0,0 l/m 16,2 km/h (3 Bft) W 274 0 min 0,000 mm 0,0 UV-I 120 W/m -4,2 C -9,2 C 29,0 km/h (5 Bft) 98,29 %
17.01.2016 10:45 -1,2 C 80 % 1018,5 hPa 0,0 l/m 16,1 km/h (3 Bft) W-NW 294 0 min 0,000 mm 0,0 UV-I 130 W/m -4,2 C -9,1 C 32,2 km/h (5 Bft) 98,26 %
17.01.2016 10:50 -1,2 C 80 % 1018,5 hPa 0,0 l/m 16,2 km/h (3 Bft) W 259 0 min 0,000 mm 0,0 UV-I 139 W/m -4,2 C -9,2 C 30,6 km/h (5 Bft) 100,00 %
17.01.2016 10:55 -1,1 C 80 % 1018,6 hPa 0,0 l/m 18,1 km/h (3 Bft) W-SW 251 0 min 0,000 mm 0,0 UV-I 143 W/m -4,1 C -10,1 C 32,2 km/h (5 Bft) 99,19 %
17.01.2016 11:00 -1,1 C 80 % 1018,5 hPa 0,0 l/m 14,6 km/h (3 Bft) S-SW 212 0 min 0,050 mm 0,0 UV-I 144 W/m -4,1 C -8,1 C 24,1 km/h (4 Bft) 100,00 %
17.01.2016 11:05 -1,1 C 79 % 1018,6 hPa 0,0 l/m 18,2 km/h (3 Bft) W 263 0 min 0,000 mm 0,0 UV-I 144 W/m -4,3 C -10,1 C 33,8 km/h (5 Bft) 100,00 %
17.01.2016 11:10 -1,1 C 80 % 1018,6 hPa 0,0 l/m 15,3 km/h (3 Bft) W-SW 244 0 min 0,000 mm 0,0 UV-I 144 W/m -4,1 C -8,5 C 32,2 km/h (5 Bft) 99,11 %
17.01.2016 11:15 -1,1 C 79 % 1018,6 hPa 0,0 l/m 16,1 km/h (3 Bft) W-SW 240 0 min 0,000 mm 0,0 UV-I 145 W/m -4,3 C -9,0 C 30,6 km/h (5 Bft) 100,00 %
17.01.2016 11:20 -1,1 C 80 % 1018,6 hPa 0,0 l/m 15,4 km/h (3 Bft) W 274 0 min 0,000 mm 0,0 UV-I 151 W/m -4,1 C -8,6 C 25,7 km/h (4 Bft) 99,07 %
17.01.2016 11:25 -1,1 C 80 % 1018,6 hPa 0,0 l/m 14,5 km/h (3 Bft) W 270 0 min 0,000 mm 0,0 UV-I 158 W/m -4,1 C -8,0 C 22,5 km/h (4 Bft) 100,00 %
17.01.2016 11:30 -1,1 C 79 % 1018,6 hPa 0,0 l/m 15,5 km/h (3 Bft) W-NW 284 0 min 0,000 mm 0,0 UV-I 168 W/m -4,3 C -8,6 C 27,4 km/h (4 Bft) 95,06 %
17.01.2016 11:35 -1,0 C 80 % 1018,7 hPa 0,0 l/m 12,6 km/h (3 Bft) W-SW 238 0 min 0,000 mm 0,0 UV-I 174 W/m -4,0 C -6,6 C 24,1 km/h (4 Bft) 97,58 %
17.01.2016 11:40 -1,0 C 79 % 1018,5 hPa 0,0 l/m 16,6 km/h (3 Bft) W-SW 242 0 min 0,000 mm 0,5 UV-I 179 W/m -4,2 C -9,1 C 33,8 km/h (5 Bft) 96,19 %
17.01.2016 11:45 -0,9 C 79 % 1018,6 hPa 0,0 l/m 13,8 km/h (3 Bft) W 269 0 min 0,000 mm 0,5 UV-I 180 W/m -4,1 C -7,3 C 30,6 km/h (5 Bft) 97,69 %
17.01.2016 11:50 -0,9 C 80 % 1018,6 hPa 0,0 l/m 13,0 km/h (3 Bft) W 263 0 min 0,000 mm 0,5 UV-I 181 W/m -3,9 C -6,8 C 22,5 km/h (4 Bft) 96,12 %
17.01.2016 11:55 -0,9 C 80 % 1018,6 hPa 0,0 l/m 13,8 km/h (3 Bft) W 276 0 min 0,000 mm 0,5 UV-I 185 W/m -3,9 C -7,3 C 25,7 km/h (4 Bft) 97,67 %
17.01.2016 12:00 -0,8 C 80 % 1018,6 hPa 0,0 l/m 10,6 km/h (2 Bft) W-SW 248 0 min 0,077 mm 0,5 UV-I 191 W/m -3,8 C -4,8 C 20,9 km/h (4 Bft) 99,11 %
17.01.2016 12:05 -0,8 C 80 % 1018,6 hPa 0,0 l/m 12,6 km/h (3 Bft) SW 235 0 min 0,000 mm 0,5 UV-I 197 W/m -3,8 C -6,4 C 24,1 km/h (4 Bft) 98,41 %
17.01.2016 12:10 -0,8 C 79 % 1018,6 hPa 0,0 l/m 13,4 km/h (3 Bft) S-SW 202 0 min 0,000 mm 0,5 UV-I 200 W/m -4,0 C -6,9 C 25,7 km/h (4 Bft) 100,00 %
17.01.2016 12:15 -0,8 C 80 % 1018,6 hPa 0,0 l/m 12,3 km/h (3 Bft) W 275 0 min 0,000 mm 0,5 UV-I 201 W/m -3,8 C -6,1 C 25,7 km/h (4 Bft) 100,00 %
17.01.2016 12:20 -0,8 C 80 % 1018,6 hPa 0,0 l/m 14,1 km/h (3 Bft) W-SW 256 0 min 0,000 mm 0,5 UV-I 195 W/m -3,8 C -7,4 C 27,4 km/h (4 Bft) 99,17 %
17.01.2016 12:25 -0,8 C 80 % 1018,7 hPa 0,0 l/m 15,8 km/h (3 Bft) W-SW 257 5 min 0,000 mm 0,6 UV-I 207 W/m -3,8 C -8,4 C 29,0 km/h (5 Bft) 100,00 %
17.01.2016 12:30 -0,7 C 79 % 1018,6 hPa 0,0 l/m 15,5 km/h (3 Bft) W-SW 255 5 min 0,000 mm 0,6 UV-I 275 W/m -3,9 C -8,1 C 30,6 km/h (5 Bft) 99,11 %
17.01.2016 12:35 -0,6 C 78 % 1018,6 hPa 0,0 l/m 11,4 km/h (2 Bft) W-SW 242 5 min 0,000 mm 0,6 UV-I 326 W/m -3,9 C -5,2 C 25,7 km/h (4 Bft) 100,00 %
17.01.2016 12:40 -0,4 C 78 % 1018,6 hPa 0,0 l/m 13,7 km/h (3 Bft) W 263 5 min 0,000 mm 0,7 UV-I 333 W/m -3,8 C -6,6 C 20,9 km/h (4 Bft) 100,00 %
17.01.2016 12:45 -0,3 C 78 % 1018,5 hPa 0,0 l/m 14,8 km/h (3 Bft) W-SW 249 5 min 0,000 mm 0,7 UV-I 338 W/m -3,7 C -7,2 C 24,1 km/h (4 Bft) 95,83 %
17.01.2016 12:50 -0,3 C 76 % 1018,5 hPa 0,0 l/m 13,9 km/h (3 Bft) W-SW 254 5 min 0,000 mm 0,7 UV-I 356 W/m -4,0 C -6,7 C 25,7 km/h (4 Bft) 99,06 %
17.01.2016 12:55 -0,2 C 76 % 1018,5 hPa 0,0 l/m 16,8 km/h (3 Bft) W 272 5 min 0,000 mm 0,7 UV-I 386 W/m -3,9 C -8,3 C 30,6 km/h (5 Bft) 100,00 %
17.01.2016 13:00 -0,1 C 75 % 1018,5 hPa 0,0 l/m 13,9 km/h (3 Bft) W 273 5 min 0,101 mm 0,7 UV-I 396 W/m -4,0 C -6,4 C 29,0 km/h (5 Bft) 100,00 %
17.01.2016 13:05 -0,1 C 74 % 1018,5 hPa 0,0 l/m 14,5 km/h (3 Bft) W 259 5 min 0,000 mm 0,6 UV-I 362 W/m -4,2 C -6,8 C 29,0 km/h (5 Bft) 99,17 %
17.01.2016 13:10 -0,2 C 75 % 1018,5 hPa 0,0 l/m 12,1 km/h (2 Bft) W-SW 240 5 min 0,000 mm 0,6 UV-I 371 W/m -4,1 C -5,3 C 24,1 km/h (4 Bft) 96,23 %
17.01.2016 13:15 -0,2 C 74 % 1018,4 hPa 0,0 l/m 13,4 km/h (3 Bft) S-SW 212 5 min 0,000 mm 0,6 UV-I 329 W/m -4,3 C -6,2 C 25,7 km/h (4 Bft) 96,80 %
17.01.2016 13:20 -0,2 C 74 % 1018,5 hPa 0,0 l/m 13,3 km/h (3 Bft) W-SW 246 5 min 0,000 mm 0,6 UV-I 281 W/m -4,3 C -6,1 C 27,4 km/h (4 Bft) 97,32 %
17.01.2016 13:25 -0,2 C 75 % 1018,5 hPa 0,0 l/m 11,6 km/h (2 Bft) W-NW 289 5 min 0,000 mm 0,6 UV-I 337 W/m -4,1 C -4,9 C 17,7 km/h (3 Bft) 96,67 %
17.01.2016 13:30 -0,3 C 74 % 1018,6 hPa 0,0 l/m 8,9 km/h (2 Bft) W 273 5 min 0,000 mm 0,5 UV-I 250 W/m -4,4 C -2,8 C 22,5 km/h (4 Bft) 99,17 %
17.01.2016 13:35 -0,4 C 74 % 1018,7 hPa 0,0 l/m 14,6 km/h (3 Bft) W 259 5 min 0,000 mm 0,5 UV-I 207 W/m -4,5 C -7,2 C 24,1 km/h (4 Bft) 99,17 %
17.01.2016 13:40 -0,4 C 75 % 1018,6 hPa 0,0 l/m 11,8 km/h (2 Bft) W-SW 246 5 min 0,000 mm 0,5 UV-I 209 W/m -4,3 C -5,3 C 20,9 km/h (4 Bft) 100,00 %
17.01.2016 13:45 -0,5 C 74 % 1018,7 hPa 0,0 l/m 11,9 km/h (2 Bft) W 272 5 min 0,000 mm 0,5 UV-I 206 W/m -4,5 C -5,5 C 27,4 km/h (4 Bft) 98,35 %
17.01.2016 13:50 -0,4 C 74 % 1018,8 hPa 0,0 l/m 7,6 km/h (2 Bft) NW 306 5 min 0,000 mm 0,5 UV-I 242 W/m -4,5 C -1,7 C 17,7 km/h (3 Bft) 100,00 %
17.01.2016 13:55 -0,3 C 74 % 1018,8 hPa 0,0 l/m 6,4 km/h (2 Bft) W 275 5 min 0,000 mm 0,5 UV-I 282 W/m -4,4 C -0,3 C 16,1 km/h (3 Bft) 100,00 %
17.01.2016 14:00 -0,2 C 73 % 1018,8 hPa 0,0 l/m 7,0 km/h (2 Bft) NW 313 5 min 0,102 mm 0,5 UV-I 300 W/m -4,4 C -0,8 C 14,5 km/h (3 Bft) 100,00 %
17.01.2016 14:05 -0,2 C 73 % 1018,8 hPa 0,0 l/m 11,3 km/h (2 Bft) W 260 5 min 0,000 mm 0,2 UV-I 289 W/m -4,4 C -4,7 C 22,5 km/h (4 Bft) 100,00 %
17.01.2016 14:10 -0,1 C 73 % 1018,9 hPa 0,0 l/m 3,8 km/h (1 Bft) N 360 5 min 0,000 mm 0,0 UV-I 280 W/m -4,3 C -0,1 C 9,7 km/h (2 Bft) 100,00 %
17.01.2016 14:15 -0,2 C 72 % 1018,9 hPa 0,0 l/m 5,0 km/h (1 Bft) W-SW 254 5 min 0,000 mm 0,0 UV-I 243 W/m -4,6 C -0,2 C 14,5 km/h (3 Bft) 99,15 %
17.01.2016 14:20 -0,3 C 71 % 1018,9 hPa 0,0 l/m 4,3 km/h (1 Bft) W 260 5 min 0,000 mm 0,0 UV-I 232 W/m -4,9 C -0,3 C 11,3 km/h (2 Bft) 100,00 %
17.01.2016 14:25 -0,6 C 72 % 1019,0 hPa 0,0 l/m 7,2 km/h (2 Bft) W-SW 245 0 min 0,000 mm 0,0 UV-I 120 W/m -5,0 C -1,4 C 17,7 km/h (3 Bft) 99,15 %
17.01.2016 14:30 -0,8 C 73 % 1019,0 hPa 0,0 l/m 5,7 km/h (1 Bft) W-NW 294 0 min 0,000 mm 0,0 UV-I 102 W/m -5,0 C -0,8 C 16,1 km/h (3 Bft) 98,37 %
17.01.2016 14:35 -0,9 C 74 % 1019,0 hPa 0,0 l/m 4,3 km/h (1 Bft) W 277 0 min 0,000 mm 0,0 UV-I 112 W/m -4,9 C -0,9 C 14,5 km/h (3 Bft) 97,25 %
17.01.2016 14:40 -0,6 C 74 % 1019,1 hPa 0,0 l/m 5,4 km/h (1 Bft) W-NW 294 5 min 0,000 mm 0,0 UV-I 237 W/m -4,6 C -0,6 C 16,1 km/h (3 Bft) 97,52 %
17.01.2016 14:45 -0,2 C 73 % 1019,1 hPa 0,0 l/m 3,8 km/h (1 Bft) W-NW 302 5 min 0,000 mm 0,0 UV-I 259 W/m -4,4 C -0,2 C 9,7 km/h (2 Bft) 96,43 %
17.01.2016 14:50 -0,3 C 71 % 1019,1 hPa 0,0 l/m 4,9 km/h (1 Bft) W-NW 291 5 min 0,000 mm 0,0 UV-I 229 W/m -4,9 C -0,3 C 14,5 km/h (3 Bft) 97,44 %
17.01.2016 14:55 -0,4 C 71 % 1019,2 hPa 0,0 l/m 7,3 km/h (2 Bft) W-NW 285 5 min 0,000 mm 0,0 UV-I 157 W/m -5,0 C -1,3 C 22,5 km/h (4 Bft) 98,39 %
17.01.2016 15:00 -0,6 C 72 % 1019,2 hPa 0,0 l/m 4,5 km/h (1 Bft) NW 315 5 min 0,076 mm 0,0 UV-I 154 W/m -5,0 C -0,6 C 11,3 km/h (2 Bft) 100,00 %
17.01.2016 15:05 -0,6 C 71 % 1019,3 hPa 0,0 l/m 6,7 km/h (2 Bft) W 273 0 min 0,000 mm 0,0 UV-I 103 W/m -5,2 C -0,9 C 17,7 km/h (3 Bft) 96,33 %
17.01.2016 15:10 -0,7 C 72 % 1019,3 hPa 0,0 l/m 6,0 km/h (2 Bft) W 279 0 min 0,000 mm 0,0 UV-I 97 W/m -5,1 C -0,7 C 17,7 km/h (3 Bft) 100,00 %
17.01.2016 15:15 -0,9 C 72 % 1019,3 hPa 0,0 l/m 4,1 km/h (1 Bft) NW 314 0 min 0,000 mm 0,0 UV-I 54 W/m -5,3 C -0,9 C 8,0 km/h (2 Bft) 100,00 %
17.01.2016 15:20 -1,1 C 72 % 1019,3 hPa 0,0 l/m 4,9 km/h (1 Bft) W 261 0 min 0,000 mm 0,0 UV-I 52 W/m -5,5 C -1,1 C 11,3 km/h (2 Bft) 99,15 %
17.01.2016 15:25 -1,1 C 73 % 1019,4 hPa 0,0 l/m 6,8 km/h (2 Bft) W 267 0 min 0,000 mm 0,0 UV-I 64 W/m -5,3 C -1,5 C 14,5 km/h (3 Bft) 100,00 %
17.01.2016 15:30 -0,9 C 73 % 1019,4 hPa 0,0 l/m 8,2 km/h (2 Bft) W 269 0 min 0,000 mm 0,0 UV-I 70 W/m -5,1 C -2,8 C 12,9 km/h (3 Bft) 99,08 %
17.01.2016 15:35 -0,9 C 73 % 1019,5 hPa 0,0 l/m 10,1 km/h (2 Bft) W-SW 250 5 min 0,000 mm 0,0 UV-I 86 W/m -5,1 C -4,5 C 16,1 km/h (3 Bft) 98,39 %
17.01.2016 15:40 -0,9 C 74 % 1019,5 hPa 0,0 l/m 7,3 km/h (2 Bft) W-SW 248 5 min 0,000 mm 0,0 UV-I 85 W/m -4,9 C -1,9 C 14,5 km/h (3 Bft) 100,00 %
17.01.2016 15:45 -0,9 C 74 % 1019,6 hPa 0,0 l/m 7,7 km/h (2 Bft) SW 233 5 min 0,000 mm 0,0 UV-I 66 W/m -4,9 C -2,3 C 14,5 km/h (3 Bft) 100,00 %
17.01.2016 15:50 -1,0 C 75 % 1019,6 hPa 0,0 l/m 8,8 km/h (2 Bft) W-SW 243 0 min 0,000 mm 0,0 UV-I 51 W/m -4,9 C -3,5 C 14,5 km/h (3 Bft) 100,00 %
17.01.2016 15:55 -1,1 C 75 % 1019,6 hPa 0,0 l/m 8,7 km/h (2 Bft) W-NW 296 0 min 0,000 mm 0,0 UV-I 34 W/m -5,0 C -3,5 C 14,5 km/h (3 Bft) 99,13 %
17.01.2016 16:00 -1,2 C 76 % 1019,7 hPa 0,0 l/m 8,4 km/h (2 Bft) W 268 0 min 0,025 mm 0,0 UV-I 24 W/m -4,9 C -3,3 C 16,1 km/h (3 Bft) 100,00 %
17.01.2016 16:05 -1,2 C 76 % 1019,7 hPa 0,0 l/m 8,3 km/h (2 Bft) W 271 0 min 0,000 mm 0,0 UV-I 20 W/m -4,9 C -3,2 C 14,5 km/h (3 Bft) 99,21 %
17.01.2016 16:10 -1,3 C 76 % 1019,7 hPa 0,0 l/m 6,8 km/h (2 Bft) W 262 0 min 0,000 mm 0,0 UV-I 17 W/m -5,0 C -1,7 C 12,9 km/h (3 Bft) 98,31 %
17.01.2016 16:15 -1,3 C 76 % 1019,8 hPa 0,0 l/m 6,9 km/h (2 Bft) W 266 0 min 0,000 mm 0,0 UV-I 13 W/m -5,0 C -1,8 C 12,9 km/h (3 Bft) 97,25 %
17.01.2016 16:20 -1,4 C 77 % 1019,8 hPa 0,0 l/m 8,0 km/h (2 Bft) W-SW 252 0 min 0,000 mm 0,0 UV-I 11 W/m -4,9 C -3,1 C 14,5 km/h (3 Bft) 97,37 %
17.01.2016 16:25 -1,4 C 77 % 1019,8 hPa 0,0 l/m 6,3 km/h (2 Bft) W-SW 239 0 min 0,000 mm 0,0 UV-I 8 W/m -4,9 C -1,4 C 12,9 km/h (3 Bft) 96,85 %
17.01.2016 16:30 -1,4 C 77 % 1019,9 hPa 0,0 l/m 7,9 km/h (2 Bft) W 259 0 min 0,000 mm 0,0 UV-I 6 W/m -4,9 C -3,0 C 14,5 km/h (3 Bft) 97,25 %
17.01.2016 16:35 -1,4 C 78 % 1019,9 hPa 0,0 l/m 10,3 km/h (2 Bft) W 270 0 min 0,000 mm 0,0 UV-I 5 W/m -4,7 C -5,3 C 17,7 km/h (3 Bft) 96,58 %
17.01.2016 16:40 -1,4 C 78 % 1020,0 hPa 0,0 l/m 9,8 km/h (2 Bft) W-SW 256 0 min 0,000 mm 0,0 UV-I 2 W/m -4,7 C -4,8 C 16,1 km/h (3 Bft) 96,85 %
17.01.2016 16:45 -1,5 C 79 % 1020,0 hPa 0,0 l/m 9,5 km/h (2 Bft) W 269 0 min 0,000 mm 0,0 UV-I 0 W/m -4,7 C -4,7 C 17,7 km/h (3 Bft) 99,06 %
17.01.2016 17:00 -1,6 C 80 % 1020,3 hPa 0,0 l/m 8,4 km/h (2 Bft) W 259 0 min 0,026 mm 0,0 UV-I 0 W/m -4,6 C -3,7 C 14,5 km/h (3 Bft) 99,44 %
17.01.2016 17:05 -1,6 C 80 % 1020,4 hPa 0,0 l/m 8,3 km/h (2 Bft) W 269 0 min 0,000 mm 0,0 UV-I 0 W/m -4,6 C -3,6 C 17,7 km/h (3 Bft) 100,00 %
17.01.2016 17:10 -1,6 C 80 % 1020,4 hPa 0,0 l/m 7,0 km/h (2 Bft) W 267 0 min 0,000 mm 0,0 UV-I 0 W/m -4,6 C -2,3 C 11,3 km/h (2 Bft) 100,00 %
17.01.2016 17:15 -1,6 C 80 % 1020,4 hPa 0,0 l/m 6,6 km/h (2 Bft) W-SW 244 0 min 0,000 mm 0,0 UV-I 0 W/m -4,6 C -1,8 C 12,9 km/h (3 Bft) 98,37 %
17.01.2016 17:20 -1,6 C 80 % 1020,5 hPa 0,0 l/m 7,6 km/h (2 Bft) W 261 0 min 0,000 mm 0,0 UV-I 0 W/m -4,6 C -2,9 C 12,9 km/h (3 Bft) 100,00 %
17.01.2016 17:25 -1,6 C 81 % 1020,5 hPa 0,0 l/m 8,8 km/h (2 Bft) W 268 0 min 0,000 mm 0,0 UV-I 0 W/m -4,4 C -4,1 C 12,9 km/h (3 Bft) 99,10 %
17.01.2016 17:30 -1,7 C 81 % 1020,6 hPa 0,0 l/m 8,0 km/h (2 Bft) SW 214 0 min 0,000 mm 0,0 UV-I 0 W/m -4,5 C -3,4 C 12,9 km/h (3 Bft) 99,19 %
17.01.2016 17:35 -1,7 C 81 % 1020,6 hPa 0,0 l/m 9,1 km/h (2 Bft) W-NW 283 0 min 0,000 mm 0,0 UV-I 0 W/m -4,5 C -4,5 C 17,7 km/h (3 Bft) 100,00 %
17.01.2016 17:40 -1,7 C 81 % 1020,7 hPa 0,0 l/m 9,3 km/h (2 Bft) W-SW 250 0 min 0,000 mm 0,0 UV-I 0 W/m -4,5 C -4,7 C 14,5 km/h (3 Bft) 99,21 %
17.01.2016 17:45 -1,7 C 81 % 1020,7 hPa 0,0 l/m 9,6 km/h (2 Bft) W-SW 249 0 min 0,000 mm 0,0 UV-I 0 W/m -4,5 C -5,0 C 16,1 km/h (3 Bft) 97,32 %
17.01.2016 17:50 -1,8 C 82 % 1020,7 hPa 0,0 l/m 10,2 km/h (2 Bft) W-SW 255 0 min 0,000 mm 0,0 UV-I 0 W/m -4,5 C -5,6 C 17,7 km/h (3 Bft) 100,00 %
17.01.2016 17:55 -1,8 C 82 % 1020,9 hPa 0,0 l/m 10,4 km/h (2 Bft) W-SW 258 0 min 0,000 mm 0,0 UV-I 0 W/m -4,5 C -5,8 C 16,1 km/h (3 Bft) 100,00 %
17.01.2016 18:00 -1,8 C 82 % 1020,9 hPa 0,0 l/m 9,4 km/h (2 Bft) W 266 0 min 0,000 mm 0,0 UV-I 0 W/m -4,5 C -4,9 C 14,5 km/h (3 Bft) 99,17 %
17.01.2016 18:05 -1,8 C 82 % 1021,0 hPa 0,0 l/m 9,5 km/h (2 Bft) W-SW 258 0 min 0,000 mm 0,0 UV-I 0 W/m -4,5 C -5,0 C 14,5 km/h (3 Bft) 99,12 %
17.01.2016 18:10 -1,8 C 82 % 1021,0 hPa 0,0 l/m 10,4 km/h (2 Bft) W-SW 249 0 min 0,000 mm 0,0 UV-I 0 W/m -4,5 C -5,8 C 17,7 km/h (3 Bft) 99,08 %
17.01.2016 18:15 -1,9 C 82 % 1021,1 hPa 0,0 l/m 9,9 km/h (2 Bft) W-NW 287 0 min 0,000 mm 0,0 UV-I 0 W/m -4,6 C -5,5 C 16,1 km/h (3 Bft) 98,39 %
17.01.2016 18:20 -1,9 C 82 % 1021,2 hPa 0,0 l/m 8,8 km/h (2 Bft) W 267 0 min 0,000 mm 0,0 UV-I 0 W/m -4,6 C -4,4 C 16,1 km/h (3 Bft) 97,37 %
17.01.2016 18:25 -1,9 C 82 % 1021,2 hPa 0,0 l/m 6,9 km/h (2 Bft) W-SW 248 0 min 0,000 mm 0,0 UV-I 0 W/m -4,6 C -2,4 C 12,9 km/h (3 Bft) 96,77 %
17.01.2016 18:30 -1,9 C 83 % 1021,3 hPa 0,0 l/m 7,8 km/h (2 Bft) W 272 0 min 0,000 mm 0,0 UV-I 0 W/m -4,4 C -3,4 C 12,9 km/h (3 Bft) 97,32 %
17.01.2016 18:35 -2,0 C 83 % 1021,3 hPa 0,0 l/m 9,2 km/h (2 Bft) W-SW 237 0 min 0,000 mm 0,0 UV-I 0 W/m -4,5 C -4,9 C 14,5 km/h (3 Bft) 96,58 %
17.01.2016 18:40 -2,0 C 83 % 1021,4 hPa 0,0 l/m 7,6 km/h (2 Bft) W 265 0 min 0,000 mm 0,0 UV-I 0 W/m -4,5 C -3,3 C 12,9 km/h (3 Bft) 96,61 %
17.01.2016 18:45 -2,0 C 83 % 1021,4 hPa 0,0 l/m 8,4 km/h (2 Bft) W 263 0 min 0,000 mm 0,0 UV-I 0 W/m -4,5 C -4,2 C 12,9 km/h (3 Bft) 97,44 %
17.01.2016 18:50 -2,0 C 83 % 1021,5 hPa 0,0 l/m 9,3 km/h (2 Bft) SW 236 0 min 0,000 mm 0,0 UV-I 0 W/m -4,5 C -5,0 C 16,1 km/h (3 Bft) 98,31 %
17.01.2016 18:55 -2,1 C 83 % 1021,5 hPa 0,0 l/m 9,4 km/h (2 Bft) W 262 0 min 0,000 mm 0,0 UV-I 0 W/m -4,6 C -5,2 C 16,1 km/h (3 Bft) 99,11 %
17.01.2016 19:00 -2,1 C 83 % 1021,5 hPa 0,0 l/m 7,9 km/h (2 Bft) W-SW 252 0 min 0,000 mm 0,0 UV-I 0 W/m -4,6 C -3,7 C 12,9 km/h (3 Bft) 100,00 %
17.01.2016 19:05 -2,1 C 83 % 1021,5 hPa 0,0 l/m 7,3 km/h (2 Bft) W-SW 256 0 min 0,000 mm 0,0 UV-I 0 W/m -4,6 C -3,1 C 12,9 km/h (3 Bft) 99,13 %
17.01.2016 19:10 -2,2 C 83 % 1021,6 hPa 0,0 l/m 9,7 km/h (2 Bft) W 259 0 min 0,000 mm 0,0 UV-I 0 W/m -4,7 C -5,6 C 14,5 km/h (3 Bft) 100,00 %
17.01.2016 19:15 -2,2 C 84 % 1021,6 hPa 0,0 l/m 6,9 km/h (2 Bft) W-SW 248 0 min 0,000 mm 0,0 UV-I 0 W/m -4,5 C -2,7 C 14,5 km/h (3 Bft) 99,21 %
17.01.2016 19:20 -2,2 C 84 % 1021,7 hPa 0,0 l/m 7,4 km/h (2 Bft) W-SW 252 0 min 0,000 mm 0,0 UV-I 0 W/m -4,5 C -3,3 C 12,9 km/h (3 Bft) 100,00 %
17.01.2016 19:25 -2,2 C 84 % 1021,8 hPa 0,0 l/m 7,2 km/h (2 Bft) W-SW 252 0 min 0,000 mm 0,0 UV-I 0 W/m -4,5 C -3,1 C 14,5 km/h (3 Bft) 100,00 %
17.01.2016 19:30 -2,3 C 84 % 1021,8 hPa 0,0 l/m 5,7 km/h (1 Bft) W-SW 250 0 min 0,000 mm 0,0 UV-I 0 W/m -4,6 C -2,3 C 9,7 km/h (2 Bft) 98,21 %
17.01.2016 19:35 -2,3 C 84 % 1021,9 hPa 0,0 l/m 6,6 km/h (2 Bft) W-SW 254 0 min 0,000 mm 0,0 UV-I 0 W/m -4,6 C -2,5 C 11,3 km/h (2 Bft) 99,21 %
17.01.2016 19:40 -2,3 C 84 % 1022,0 hPa 0,0 l/m 7,0 km/h (2 Bft) W-SW 253 0 min 0,000 mm 0,0 UV-I 0 W/m -4,6 C -3,0 C 12,9 km/h (3 Bft) 98,29 %
17.01.2016 19:45 -2,3 C 84 % 1021,9 hPa 0,0 l/m 6,8 km/h (2 Bft) W 274 0 min 0,000 mm 0,0 UV-I 0 W/m -4,6 C -2,7 C 12,9 km/h (3 Bft) 100,00 %
17.01.2016 19:50 -2,3 C 85 % 1022,0 hPa 0,0 l/m 7,5 km/h (2 Bft) W 267 0 min 0,000 mm 0,0 UV-I 0 W/m -4,5 C -3,5 C 14,5 km/h (3 Bft) 100,00 %
17.01.2016 19:55 -2,3 C 85 % 1022,0 hPa 0,0 l/m 6,4 km/h (2 Bft) W-SW 258 0 min 0,000 mm 0,0 UV-I 0 W/m -4,5 C -2,3 C 11,3 km/h (2 Bft) 99,17 %
17.01.2016 20:00 -2,3 C 85 % 1022,1 hPa 0,0 l/m 5,5 km/h (1 Bft) W 272 0 min 0,000 mm 0,0 UV-I 0 W/m -4,5 C -2,3 C 9,7 km/h (2 Bft) 100,00 %
17.01.2016 20:05 -2,3 C 85 % 1022,1 hPa 0,0 l/m 7,0 km/h (2 Bft) W-SW 252 0 min 0,000 mm 0,0 UV-I 0 W/m -4,5 C -3,0 C 11,3 km/h (2 Bft) 99,06 %
17.01.2016 20:10 -2,3 C 85 % 1022,2 hPa 0,0 l/m 7,5 km/h (2 Bft) W-SW 248 0 min 0,000 mm 0,0 UV-I 0 W/m -4,5 C -3,5 C 12,9 km/h (3 Bft) 99,28 %
17.01.2016 20:15 -2,4 C 85 % 1022,2 hPa 0,0 l/m 8,3 km/h (2 Bft) W-SW 254 0 min 0,000 mm 0,0 UV-I 0 W/m -4,6 C -4,5 C 14,5 km/h (3 Bft) 98,26 %
17.01.2016 20:20 -2,4 C 85 % 1022,2 hPa 0,0 l/m 7,0 km/h (2 Bft) W-SW 255 0 min 0,000 mm 0,0 UV-I 0 W/m -4,6 C -3,1 C 12,9 km/h (3 Bft) 96,58 %
17.01.2016 20:25 -2,4 C 85 % 1022,3 hPa 0,0 l/m 7,8 km/h (2 Bft) W 268 0 min 0,000 mm 0,0 UV-I 0 W/m -4,6 C -4,0 C 11,3 km/h (2 Bft) 95,28 %
17.01.2016 20:30 -2,4 C 85 % 1022,4 hPa 0,0 l/m 8,1 km/h (2 Bft) W-SW 254 0 min 0,000 mm 0,0 UV-I 0 W/m -4,6 C -4,3 C 12,9 km/h (3 Bft) 96,92 %
17.01.2016 20:35 -2,4 C 85 % 1022,4 hPa 0,0 l/m 8,4 km/h (2 Bft) W 270 0 min 0,000 mm 0,0 UV-I 0 W/m -4,6 C -4,6 C 14,5 km/h (3 Bft) 95,74 %
17.01.2016 20:40 -2,3 C 85 % 1022,5 hPa 0,0 l/m 7,4 km/h (2 Bft) W 280 0 min 0,000 mm 0,0 UV-I 0 W/m -4,5 C -3,4 C 12,9 km/h (3 Bft) 97,22 %
17.01.2016 20:45 -2,3 C 85 % 1022,4 hPa 0,0 l/m 9,2 km/h (2 Bft) W-SW 254 0 min 0,000 mm 0,0 UV-I 0 W/m -4,5 C -5,3 C 14,5 km/h (3 Bft) 97,37 %
17.01.2016 20:50 -2,3 C 85 % 1022,4 hPa 0,0 l/m 8,7 km/h (2 Bft) W-SW 240 0 min 0,000 mm 0,0 UV-I 0 W/m -4,5 C -4,8 C 16,1 km/h (3 Bft) 98,35 %
17.01.2016 20:55 -2,3 C 86 % 1022,4 hPa 0,0 l/m 7,6 km/h (2 Bft) W 261 0 min 0,000 mm 0,0 UV-I 0 W/m -4,3 C -3,6 C 14,5 km/h (3 Bft) 98,11 %
17.01.2016 21:00 -2,3 C 85 % 1022,4 hPa 0,0 l/m 9,8 km/h (2 Bft) W 269 0 min 0,000 mm 0,0 UV-I 0 W/m -4,5 C -5,8 C 14,5 km/h (3 Bft) 98,41 %
17.01.2016 21:05 -2,3 C 86 % 1022,4 hPa 0,0 l/m 9,8 km/h (2 Bft) W 263 0 min 0,000 mm 0,0 UV-I 0 W/m -4,3 C -5,8 C 16,1 km/h (3 Bft) 98,94 %
17.01.2016 21:10 -2,4 C 86 % 1022,5 hPa 0,0 l/m 8,4 km/h (2 Bft) W-SW 249 0 min 0,000 mm 0,0 UV-I 0 W/m -4,4 C -4,6 C 14,5 km/h (3 Bft) 99,29 %
17.01.2016 21:15 -2,4 C 86 % 1022,5 hPa 0,0 l/m 8,8 km/h (2 Bft) W-NW 284 0 min 0,000 mm 0,0 UV-I 0 W/m -4,4 C -5,0 C 16,1 km/h (3 Bft) 97,25 %
17.01.2016 21:20 -2,4 C 86 % 1022,5 hPa 0,0 l/m 6,6 km/h (2 Bft) W 270 0 min 0,000 mm 0,0 UV-I 0 W/m -4,4 C -2,6 C 14,5 km/h (3 Bft) 100,00 %
17.01.2016 21:25 -2,4 C 86 % 1022,6 hPa 0,0 l/m 5,8 km/h (2 Bft) W 269 0 min 0,000 mm 0,0 UV-I 0 W/m -4,4 C -2,4 C 12,9 km/h (3 Bft) 98,25 %
17.01.2016 21:30 -2,4 C 86 % 1022,7 hPa 0,0 l/m 6,9 km/h (2 Bft) W-NW 290 0 min 0,000 mm 0,0 UV-I 0 W/m -4,4 C -2,9 C 16,1 km/h (3 Bft) 98,35 %
17.01.2016 21:35 -2,4 C 87 % 1022,7 hPa 0,0 l/m 5,0 km/h (1 Bft) W 273 0 min 0,000 mm 0,0 UV-I 0 W/m -4,3 C -2,4 C 11,3 km/h (2 Bft) 100,00 %
17.01.2016 21:40 -2,4 C 87 % 1022,7 hPa 0,0 l/m 3,8 km/h (1 Bft) W 269 0 min 0,000 mm 0,0 UV-I 0 W/m -4,3 C -2,4 C 6,4 km/h (2 Bft) 99,12 %
17.01.2016 21:45 -2,5 C 87 % 1022,8 hPa 0,0 l/m 3,9 km/h (1 Bft) W-SW 248 0 min 0,000 mm 0,0 UV-I 0 W/m -4,4 C -2,5 C 9,7 km/h (2 Bft) 98,39 %
17.01.2016 21:50 -2,5 C 87 % 1022,9 hPa 0,0 l/m 5,6 km/h (1 Bft) W 267 0 min 0,000 mm 0,0 UV-I 0 W/m -4,4 C -2,5 C 11,3 km/h (2 Bft) 99,06 %
17.01.2016 21:55 -2,5 C 87 % 1022,8 hPa 0,0 l/m 6,7 km/h (2 Bft) W 281 0 min 0,000 mm 0,0 UV-I 0 W/m -4,4 C -2,8 C 11,3 km/h (2 Bft) 98,45 %
17.01.2016 22:00 -2,5 C 87 % 1022,8 hPa 0,0 l/m 5,4 km/h (1 Bft) W-SW 252 0 min 0,000 mm 0,0 UV-I 0 W/m -4,4 C -2,5 C 12,9 km/h (3 Bft) 99,13 %
17.01.2016 22:05 -2,5 C 87 % 1022,8 hPa 0,0 l/m 5,1 km/h (1 Bft) W-SW 248 0 min 0,000 mm 0,0 UV-I 0 W/m -4,4 C -2,5 C 9,7 km/h (2 Bft) 100,00 %
17.01.2016 22:10 -2,6 C 87 % 1022,9 hPa 0,0 l/m 8,6 km/h (2 Bft) W 267 0 min 0,000 mm 0,0 UV-I 0 W/m -4,5 C -5,0 C 14,5 km/h (3 Bft) 100,00 %
17.01.2016 22:15 -2,6 C 87 % 1022,9 hPa 0,0 l/m 7,6 km/h (2 Bft) W-SW 258 0 min 0,000 mm 0,0 UV-I 0 W/m -4,5 C -3,9 C 14,5 km/h (3 Bft) 98,31 %
17.01.2016 22:20 -2,6 C 88 % 1023,1 hPa 0,0 l/m 6,2 km/h (2 Bft) W-SW 252 0 min 0,000 mm 0,0 UV-I 0 W/m -4,3 C -2,6 C 11,3 km/h (2 Bft) 99,15 %
17.01.2016 22:25 -2,6 C 87 % 1023,1 hPa 0,0 l/m 5,2 km/h (1 Bft) W-SW 251 0 min 0,000 mm 0,0 UV-I 0 W/m -4,5 C -2,6 C 9,7 km/h (2 Bft) 97,52 %
17.01.2016 22:30 -2,6 C 87 % 1023,2 hPa 0,0 l/m 4,6 km/h (1 Bft) W-SW 254 0 min 0,000 mm 0,0 UV-I 0 W/m -4,5 C -2,6 C 9,7 km/h (2 Bft) 97,25 %
17.01.2016 22:35 -2,6 C 88 % 1023,2 hPa 0,0 l/m 4,2 km/h (1 Bft) W 259 0 min 0,000 mm 0,0 UV-I 0 W/m -4,3 C -2,6 C 9,7 km/h (2 Bft) 95,90 %
17.01.2016 22:40 -2,6 C 87 % 1023,3 hPa 0,0 l/m 5,8 km/h (2 Bft) W-SW 243 0 min 0,000 mm 0,0 UV-I 0 W/m -4,5 C -2,6 C 11,3 km/h (2 Bft) 95,97 %
17.01.2016 22:45 -2,6 C 87 % 1023,4 hPa 0,0 l/m 7,1 km/h (2 Bft) W-SW 250 0 min 0,000 mm 0,0 UV-I 0 W/m -4,5 C -3,4 C 12,9 km/h (3 Bft) 96,40 %
17.01.2016 22:50 -2,6 C 87 % 1023,4 hPa 0,0 l/m 4,4 km/h (1 Bft) W-NW 290 0 min 0,000 mm 0,0 UV-I 0 W/m -4,5 C -2,6 C 9,7 km/h (2 Bft) 99,08 %
17.01.2016 22:55 -2,6 C 87 % 1023,5 hPa 0,0 l/m 4,9 km/h (1 Bft) W 264 0 min 0,000 mm 0,0 UV-I 0 W/m -4,5 C -2,6 C 12,9 km/h (3 Bft) 98,35 %
17.01.2016 23:00 -2,6 C 87 % 1023,5 hPa 0,0 l/m 5,0 km/h (1 Bft) W-SW 250 0 min 0,000 mm 0,0 UV-I 0 W/m -4,5 C -2,6 C 9,7 km/h (2 Bft) 99,12 %
17.01.2016 23:05 -2,6 C 87 % 1023,6 hPa 0,0 l/m 4,8 km/h (1 Bft) W-NW 286 0 min 0,000 mm 0,0 UV-I 0 W/m -4,5 C -2,6 C 9,7 km/h (2 Bft) 99,23 %
17.01.2016 23:10 -2,7 C 87 % 1023,6 hPa 0,0 l/m 5,7 km/h (1 Bft) W 259 0 min 0,000 mm 0,0 UV-I 0 W/m -4,6 C -2,7 C 11,3 km/h (2 Bft) 98,17 %
17.01.2016 23:15 -2,6 C 87 % 1023,6 hPa 0,0 l/m 4,5 km/h (1 Bft) W-SW 257 0 min 0,000 mm 0,0 UV-I 0 W/m -4,5 C -2,6 C 9,7 km/h (2 Bft) 98,25 %
17.01.2016 23:20 -2,7 C 87 % 1023,6 hPa 0,0 l/m 4,2 km/h (1 Bft) W 272 0 min 0,000 mm 0,0 UV-I 0 W/m -4,6 C -2,7 C 6,4 km/h (2 Bft) 100,00 %
17.01.2016 23:25 -2,7 C 87 % 1023,6 hPa 0,0 l/m 7,7 km/h (2 Bft) W 267 0 min 0,000 mm 0,0 UV-I 0 W/m -4,6 C -4,2 C 12,9 km/h (3 Bft) 99,17 %
17.01.2016 23:30 -2,7 C 87 % 1023,6 hPa 0,0 l/m 7,2 km/h (2 Bft) W 266 0 min 0,000 mm 0,0 UV-I 0 W/m -4,6 C -3,6 C 12,9 km/h (3 Bft) 100,00 %
17.01.2016 23:35 -2,7 C 87 % 1023,6 hPa 0,0 l/m 7,5 km/h (2 Bft) W 263 0 min 0,000 mm 0,0 UV-I 0 W/m -4,6 C -3,9 C 11,3 km/h (2 Bft) 100,00 %
17.01.2016 23:40 -2,7 C 87 % 1023,6 hPa 0,0 l/m 6,3 km/h (2 Bft) W-SW 256 0 min 0,000 mm 0,0 UV-I 0 W/m -4,6 C -2,7 C 11,3 km/h (2 Bft) 98,29 %
17.01.2016 23:45 -2,7 C 87 % 1023,8 hPa 0,0 l/m 5,7 km/h (1 Bft) W 263 0 min 0,000 mm 0,0 UV-I 0 W/m -4,6 C -2,7 C 11,3 km/h (2 Bft) 100,00 %
17.01.2016 23:50 -2,7 C 87 % 1023,8 hPa 0,0 l/m 7,0 km/h (2 Bft) W 275 0 min 0,000 mm 0,0 UV-I 0 W/m -4,6 C -3,4 C 12,9 km/h (3 Bft) 100,00 %
17.01.2016 23:55 -2,8 C 87 % 1023,8 hPa 0,0 l/m 6,6 km/h (2 Bft) W 273 0 min 0,000 mm 0,0 UV-I 0 W/m -4,7 C -3,0 C 12,9 km/h (3 Bft) 98,33 %
_ Min-Zeit 23:50 14:20 03:55 - 14:10 - - - - - - 15:20 08:35 21:40 00:05
Minimum _ -2,8 C 71 % 1016,4 hPa - 3,8 km/h (1 Bft) - - - - - - -5,5 C -14,2 C 6,4 km/h (2 Bft) 77,53 %
_ Max-Zeit 13:00 03:05 23:45 00:00 08:35 - - 12:25 14:00 12:40 13:00 03:10 14:10 04:30 00:00
Maximum _ -0,1 C 95 % 1023,8 hPa 0,0 l/m 24,0 km/h
W-SW (4 Bft)
- - 5 min 0,102 mm 0,7 UV-I 396 W/m -1,7 C -0,1 C 46,7 km/h
W-SW (6 Bft)
100,00 %
Durchschnitt _ -1,4 C 85 % 1019,1 hPa #0,0 l/m 12,1 km/h (2 Bft) W-SW - #2:40 h #0,559 mm 0,6 UV-I 134 W/m -3,7 C -6,3 C 21,4 km/h (4 Bft) 98,53 %